Regional Weather Roundup
Issued by NWS Jackson, KY

Home | Current Version | Previous Version | Graphics & Text | Print | Product List | Glossary On
Versions: 1 2 3 4 5 6 7 8 9 10 11 12 13 14 15 16 17 18 19 20 21 22 23 24 25 26 27 28 29 30 31 32 33 34 35 36 37 38 39 40 41 42 43 44 45 46 47 48 49 50
000
ASUS43 KJKL 230910
RWRJKL

EAST KENTUCKY HOURLY WEATHER ROUNDUP
NATIONAL WEATHER SERVICE JACKSON KY
500 AM EDT SAT MAY 23 2015

NOTE: "FAIR" INDICATES FEW OR NO CLOUDS BELOW 12,000 FEET WITH
NO SIGNIFICANT WEATHER AND/OR OBSTRUCTIONS TO VISIBILITY.

* THESE REPORTS ARE NOT UNDER NWS QUALITY CONTROL AND MAY NOT
  REPORT WEATHER SUCH AS PRECIPITATION AND FOG.

KYZ079-080-083-085-087-088-110-112-115-119-120-231000
...EASTERN KENTUCKY...

CITY           SKY/WX    TMP DP  RH WIND       PRES   REMARKS
JACKSON        CLEAR     53  46  77 CALM      30.34R
LONDON         CLEAR     48  43  82 CALM      30.33R
SOMERSET*      PTCLDY    46  46 100 CALM      30.33S
MONTICELLO*    PTCLDY    50  49  96 CALM      30.35R
MIDDLESBORO*   CLEAR     45  45  99 CALM      30.36R
HARLAN APT*    MOSUNNY   45  45 100 CALM      30.36R
HAZARD APT*    SUNNY     46  46 100 CALM      30.34R
BLACK MTN*       N/A     48  39  71 NE1         N/A
PIKEVILLE APT* CLEAR     50  46  87 S3        30.34R
BIG SANDY*     SUNNY     53  47  80 CALM      30.34R
MOREHEAD APT*  CLOUDY    54  46  76 CALM      30.35R
$$

KYZ035-036-041-042-044-050-067-078-099-231000
...CENTRAL KENTUCKY...

CITY           SKY/WX    TMP DP  RH WIND       PRES   REMARKS
MT STERLING*   PTCLDY    50  46  87 SW5       30.33S
FLEMING/MASON* CLEAR     52  46  82 SE5       30.34R
DANVILLE*      PTCLDY    46  45  93 CALM      30.33S
RICHMOND*      PTCLDY    48  45  87 CALM      30.32S
LEXINGTON      PTCLDY    50  45  83 SE5       30.32R
FRANKFORT      PTCLDY    50  46  86 CALM      30.31R
$$

KYZ091>093-OHZ055-061-077-WVZ005-015-034-035-042-231000
...SOUTHERN OHIO/WEST VIRGINIA...

CITY           SKY/WX    TMP DP  RH WIND       PRES   REMARKS
COVINGTON      MOCLDY    50  46  86 CALM      30.32R
COLUMBUS       PTCLDY    50  35  56 CALM      30.34R
DAYTON         PTCLDY    50  38  63 SE8       30.34R
WILMINGTON     MOCLDY    50  40  68 NE5       30.33R
HUNTINGTON     CLEAR     45  45 100 CALM      30.32R
CHARLESTON     CLEAR     48  47  96 NE5       30.33R
PINEVILLE*     CLEAR     44  44 100 MISG      30.42R
BECKLEY        CLEAR     49  41  74 S5        30.37R
BLUEFIELD      CLEAR     50  39  66 W6        30.38R
$$

VAZ002-007-008-TNZ017-027-036-066-071-231000
...SOUTHWEST VIRGINIA/EAST TENNESSEE...

CITY           SKY/WX    TMP DP  RH WIND       PRES   REMARKS
WISE*          PTCLDY    55  36  47 CALM      30.37R
JONESVILLE*    MOSUNNY   45  45 100 CALM      30.36S
ABINGDON*      PTCLDY    50  43  77 E5        30.36R
BRISTOL        MOCLDY    47  45  93 CALM      30.35R
KNOXVILLE      PTCLDY    51  45  79 N3        30.30R
OAK RIDGE      CLEAR     51  48  89 NE3       30.33R
CROSSVILLE     CLEAR     47  43  86 CALM      30.32R
NASHVILLE      MOCLDY    53  50  89 CALM      30.30R
$$

...KEY TO REMARKS...
VSB - VISIBILITY IN MILES
WCI - WIND CHILL INDEX
HX  - HEAT INDEX

$$



USA.gov is the U.S. government's official web portal to all federal, state and local government web resources and services.